Powrót do katalogu

INTELSAT 507

AktywnyŁącznośćGEO
NORAD 14421·PAYLOAD· XX

Wystrzelony Oct 19, 1983 z Guiana Space Centre

Loading…

TLE

ŚwieżeSource: Space-Track

Epoka: Sep 14, 2026, 11:16 UTC

1 14421U 83105A   26257.46992958  .00000088  00000-0  00000-0 0  9999
2 14421  11.8654 330.5488 0002831 160.6316 247.6725  0.99693773138128

Śledź INTELSAT 507 w czasie rzeczywistym z AllMySat

Download on the App Store